Time,TemperatureF,DewpointF,PressureIn,WindDirection,WindDirectionDegrees,WindSpeedMPH,WindSpeedGustMPH,Humidity,HourlyPrecipIn,Conditions,Clouds,dailyrainin,SoftwareType,DateUTC
2013-09-06 00:04:00,80.8,74.4,29.91,East,90,0.0,-999.0,81,-99.99,,,0.00,Acu-Link.com,2013-09-06 05:04:00,
2013-09-06 00:19:00,80.1,74.1,29.91,ESE,112,0.0,-999.0,82,-99.99,,,0.00,Acu-Link.com,2013-09-06 05:19:00,
2013-09-06 00:34:00,79.7,74.1,29.91,ESE,112,0.0,-999.0,83,-99.99,,,0.00,Acu-Link.com,2013-09-06 05:34:00,
2013-09-06 00:49:00,79.5,74.2,29.90,East,90,0.0,-999.0,84,-99.99,,,0.00,Acu-Link.com,2013-09-06 05:49:00,
2013-09-06 01:04:00,79.3,74.0,29.91,ESE,112,0.0,-999.0,84,-99.99,,,0.00,Acu-Link.com,2013-09-06 06:04:00,
2013-09-06 01:19:00,79.0,73.7,29.91,ESE,112,0.0,-999.0,84,-99.99,,,0.00,Acu-Link.com,2013-09-06 06:19:00,
2013-09-06 01:34:00,78.8,73.9,29.90,ESE,112,0.0,-999.0,85,-99.99,,,0.00,Acu-Link.com,2013-09-06 06:34:00,
2013-09-06 01:49:00,78.6,73.7,29.90,ESE,112,0.0,-999.0,85,-99.99,,,0.00,Acu-Link.com,2013-09-06 06:49:00,
2013-09-06 02:04:00,78.3,73.8,29.87,WSW,247,0.0,-999.0,86,-99.99,,,0.00,Acu-Link.com,2013-09-06 07:04:00,
2013-09-06 02:20:00,78.3,73.8,29.86,West,270,0.0,-999.0,86,-99.99,,,0.00,Acu-Link.com,2013-09-06 07:20:00,
2013-09-06 02:35:00,78.3,73.8,29.89,WNW,292,0.0,-999.0,86,-99.99,,,0.00,Acu-Link.com,2013-09-06 07:35:00,
2013-09-06 02:50:00,78.1,73.6,29.89,WNW,292,0.0,-999.0,86,-99.99,,,0.00,Acu-Link.com,2013-09-06 07:50:00,
2013-09-06 03:05:00,77.9,73.4,29.89,WNW,292,0.0,-999.0,86,-99.99,,,0.00,Acu-Link.com,2013-09-06 08:05:00,
2013-09-06 03:22:00,77.9,73.4,29.88,WNW,292,0.0,-999.0,86,-99.99,,,0.00,Acu-Link.com,2013-09-06 08:22:00,
2013-09-06 03:37:00,77.9,73.4,29.88,WNW,292,0.0,-999.0,86,-99.99,,,0.00,Acu-Link.com,2013-09-06 08:37:00,
2013-09-06 03:52:00,78.1,73.9,29.85,West,270,0.0,-999.0,87,-99.99,,,0.00,Acu-Link.com,2013-09-06 08:52:00,
2013-09-06 04:07:00,79.2,74.3,29.87,SSE,157,0.0,-999.0,85,-99.99,,,0.00,Acu-Link.com,2013-09-06 09:07:00,
2013-09-06 04:22:00,78.6,73.7,29.89,SSW,202,0.0,-999.0,85,-99.99,,,0.00,Acu-Link.com,2013-09-06 09:22:00,
2013-09-06 04:38:00,77.9,72.7,29.88,SSW,202,0.0,-999.0,84,-99.99,,,0.00,Acu-Link.com,2013-09-06 09:38:00,
2013-09-06 04:53:00,77.2,72.0,29.84,WSW,247,0.0,-999.0,84,-99.99,,,0.00,Acu-Link.com,2013-09-06 09:53:00,
2013-09-06 05:08:00,77.2,72.3,29.86,NNW,337,0.0,-999.0,85,-99.99,,,0.00,Acu-Link.com,2013-09-06 10:08:00,
2013-09-06 05:23:00,77.2,72.3,29.88,West,270,0.0,-999.0,85,-99.99,,,0.00,Acu-Link.com,2013-09-06 10:23:00,
2013-09-06 05:38:00,77.2,72.7,29.88,WSW,247,2.2,-999.0,86,-99.99,,,0.00,Acu-Link.com,2013-09-06 10:38:00,
2013-09-06 05:53:00,77.0,72.5,29.86,West,270,0.0,-999.0,86,-99.99,,,0.00,Acu-Link.com,2013-09-06 10:53:00,
2013-09-06 06:08:00,76.6,72.4,29.84,West,270,0.0,-999.0,87,-99.99,,,0.00,Acu-Link.com,2013-09-06 11:08:00,
2013-09-06 06:23:00,76.6,72.8,29.86,WNW,292,0.0,-999.0,88,-99.99,,,0.00,Acu-Link.com,2013-09-06 11:23:00,
2013-09-06 06:39:00,76.6,73.4,29.88,NW,315,0.0,-999.0,90,-99.99,,,0.00,Acu-Link.com,2013-09-06 11:39:00,
2013-09-06 06:54:00,76.6,73.4,29.89,NNW,337,0.0,-999.0,90,-99.99,,,0.00,Acu-Link.com,2013-09-06 11:54:00,
2013-09-06 07:09:00,76.6,73.8,29.86,NW,315,0.0,-999.0,91,-99.99,,,0.00,Acu-Link.com,2013-09-06 12:09:00,
2013-09-06 07:24:00,76.8,74.0,29.86,NW,315,2.7,-999.0,91,-99.99,,,0.00,Acu-Link.com,2013-09-06 12:24:00,
2013-09-06 07:39:00,77.4,74.6,29.86,NW,315,1.1,-999.0,91,-99.99,,,0.00,Acu-Link.com,2013-09-06 12:39:00,
2013-09-06 07:54:00,77.9,75.1,29.87,WNW,292,2.2,-999.0,91,-99.99,,,0.00,Acu-Link.com,2013-09-06 12:54:00,
2013-09-06 08:09:00,78.4,75.5,29.87,NW,315,2.7,-999.0,91,-99.99,,,0.00,Acu-Link.com,2013-09-06 13:09:00,
2013-09-06 08:25:00,78.6,75.7,29.86,North,0,2.2,-999.0,91,-99.99,,,0.00,Acu-Link.com,2013-09-06 13:25:00,
2013-09-06 08:40:00,79.2,76.0,29.87,NNW,337,2.2,-999.0,90,-99.99,,,0.00,Acu-Link.com,2013-09-06 13:40:00,
2013-09-06 08:55:00,81.0,77.8,29.87,West,270,0.0,-999.0,90,-99.99,,,0.00,Acu-Link.com,2013-09-06 13:55:00,
2013-09-06 09:10:00,82.4,78.1,29.87,NNE,22,1.1,-999.0,87,-99.99,,,0.00,Acu-Link.com,2013-09-06 14:10:00,
2013-09-06 09:25:00,85.3,78.8,29.87,NE,45,1.7,-999.0,81,-99.99,,,0.00,Acu-Link.com,2013-09-06 14:25:00,
2013-09-06 09:40:00,88.3,78.5,29.88,NNE,22,4.2,-999.0,73,-99.99,,,0.00,Acu-Link.com,2013-09-06 14:40:00,
2013-09-06 09:55:00,91.8,79.2,29.88,WNW,292,6.3,-999.0,67,-99.99,,,0.00,Acu-Link.com,2013-09-06 14:55:00,
2013-09-06 10:10:00,92.1,78.6,29.88,NNE,22,2.7,-999.0,65,-99.99,,,0.00,Acu-Link.com,2013-09-06 15:10:00,
2013-09-06 10:25:00,91.2,79.1,29.89,NW,315,6.3,-999.0,68,-99.99,,,0.00,Acu-Link.com,2013-09-06 15:25:00,
2013-09-06 10:41:00,92.5,78.0,29.88,NE,45,2.7,-999.0,63,-99.99,,,0.00,Acu-Link.com,2013-09-06 15:41:00,
2013-09-06 10:56:00,90.0,77.5,29.88,NNE,22,1.7,-999.0,67,-99.99,,,0.00,Acu-Link.com,2013-09-06 15:56:00,
2013-09-06 11:11:00,88.5,76.1,29.88,NE,45,3.2,-999.0,67,-99.99,,,0.00,Acu-Link.com,2013-09-06 16:11:00,
2013-09-06 11:26:00,91.4,76.5,29.87,NNE,22,3.2,-999.0,62,-99.99,,,0.00,Acu-Link.com,2013-09-06 16:26:00,
2013-09-06 11:41:00,92.5,76.6,29.87,ENE,67,3.7,-999.0,60,-99.99,,,0.00,Acu-Link.com,2013-09-06 16:41:00,
2013-09-06 11:56:00,93.4,76.9,29.86,ENE,67,4.7,-999.0,59,-99.99,,,0.00,Acu-Link.com,2013-09-06 16:56:00,
2013-09-06 12:12:00,91.6,76.7,29.86,NNW,337,8.9,-999.0,62,-99.99,,,0.00,Acu-Link.com,2013-09-06 17:12:00,
2013-09-06 12:27:00,92.7,77.2,29.86,ENE,67,5.3,-999.0,61,-99.99,,,0.00,Acu-Link.com,2013-09-06 17:27:00,
2013-09-06 12:42:00,93.9,77.4,29.86,ENE,67,6.3,-999.0,59,-99.99,,,0.00,Acu-Link.com,2013-09-06 17:42:00,
2013-09-06 12:57:00,92.5,76.0,29.86,NW,315,3.2,-999.0,59,-99.99,,,0.00,Acu-Link.com,2013-09-06 17:57:00,
2013-09-06 13:12:00,94.1,75.4,29.85,NE,45,5.3,-999.0,55,-99.99,,,0.00,Acu-Link.com,2013-09-06 18:12:00,
2013-09-06 13:27:00,93.4,75.3,29.85,East,90,3.7,-999.0,56,-99.99,,,0.00,Acu-Link.com,2013-09-06 18:27:00,
2013-09-06 13:42:00,95.0,76.3,29.87,NE,45,5.8,-999.0,55,-99.99,,,0.00,Acu-Link.com,2013-09-06 18:42:00,
2013-09-06 13:57:00,94.5,77.9,29.86,ESE,112,4.7,-999.0,59,-99.99,,,0.00,Acu-Link.com,2013-09-06 18:57:00,
2013-09-06 14:12:00,92.3,76.9,29.84,East,90,4.2,-999.0,61,-99.99,,,0.00,Acu-Link.com,2013-09-06 19:12:00,
2013-09-06 14:28:00,90.0,76.1,29.82,NE,45,4.2,-999.0,64,-99.99,,,0.00,Acu-Link.com,2013-09-06 19:28:00,
2013-09-06 14:43:00,92.3,76.9,29.81,East,90,5.8,-999.0,61,-99.99,,,0.00,Acu-Link.com,2013-09-06 19:43:00,
2013-09-06 14:58:00,91.0,76.1,29.82,ESE,112,8.3,-999.0,62,-99.99,,,0.00,Acu-Link.com,2013-09-06 19:58:00,
2013-09-06 15:13:00,90.5,76.1,29.82,NE,45,6.3,-999.0,63,-99.99,,,0.00,Acu-Link.com,2013-09-06 20:13:00,
2013-09-06 15:28:00,93.2,77.7,29.82,NNE,22,4.2,-999.0,61,-99.99,,,0.00,Acu-Link.com,2013-09-06 20:28:00,
2013-09-06 15:43:00,94.6,76.4,29.80,ENE,67,6.3,-999.0,56,-99.99,,,0.00,Acu-Link.com,2013-09-06 20:43:00,
2013-09-06 15:59:00,93.6,75.5,29.78,ENE,67,4.2,-999.0,56,-99.99,,,0.00,Acu-Link.com,2013-09-06 20:59:00,
2013-09-06 16:14:00,93.2,75.1,29.79,ESE,112,4.2,-999.0,56,-99.99,,,0.00,Acu-Link.com,2013-09-06 21:14:00,
2013-09-06 16:29:00,93.7,75.0,29.80,SSE,157,4.2,-999.0,55,-99.99,,,0.00,Acu-Link.com,2013-09-06 21:29:00,
2013-09-06 16:44:00,91.6,75.2,29.80,ESE,112,5.3,-999.0,59,-99.99,,,0.00,Acu-Link.com,2013-09-06 21:44:00,
2013-09-06 16:59:00,91.6,74.7,29.81,East,90,6.8,-999.0,58,-99.99,,,0.00,Acu-Link.com,2013-09-06 21:59:00,
2013-09-06 17:14:00,89.6,74.3,29.79,ESE,112,6.8,-999.0,61,-99.99,,,0.00,Acu-Link.com,2013-09-06 22:14:00,
2013-09-06 17:29:00,88.3,74.5,29.78,East,90,6.3,-999.0,64,-99.99,,,0.00,Acu-Link.com,2013-09-06 22:29:00,
2013-09-06 17:44:00,87.8,73.6,29.80,NNE,22,3.2,-999.0,63,-99.99,,,0.00,Acu-Link.com,2013-09-06 22:44:00,
2013-09-06 17:59:00,87.3,74.1,29.81,ESE,112,5.3,-999.0,65,-99.99,,,0.00,Acu-Link.com,2013-09-06 22:59:00,
2013-09-06 18:15:00,87.3,75.0,29.81,SSE,157,6.8,-999.0,67,-99.99,,,0.00,Acu-Link.com,2013-09-06 23:15:00,
2013-09-06 18:30:00,87.3,75.0,29.80,ESE,112,4.2,-999.0,67,-99.99,,,0.00,Acu-Link.com,2013-09-06 23:30:00,
2013-09-06 18:45:00,86.7,74.8,29.79,ESE,112,2.2,-999.0,68,-99.99,,,0.00,Acu-Link.com,2013-09-06 23:45:00,
2013-09-06 19:00:00,85.8,75.3,29.78,ESE,112,4.2,-999.0,71,-99.99,,,0.00,Acu-Link.com,2013-09-07 00:00:00,
2013-09-06 19:15:00,85.6,75.1,29.80,ESE,112,3.7,-999.0,71,-99.99,,,0.00,Acu-Link.com,2013-09-07 00:15:00,
2013-09-06 19:30:00,84.9,74.8,29.81,East,90,4.7,-999.0,72,-99.99,,,0.00,Acu-Link.com,2013-09-07 00:30:00,
2013-09-06 19:45:00,84.6,75.4,29.81,ESE,112,3.7,-999.0,74,-99.99,,,0.00,Acu-Link.com,2013-09-07 00:45:00,
2013-09-06 20:00:00,83.8,75.4,29.79,East,90,3.7,-999.0,76,-99.99,,,0.00,Acu-Link.com,2013-09-07 01:00:00,
2013-09-06 20:15:00,83.7,75.7,29.78,ESE,112,3.7,-999.0,77,-99.99,,,0.00,Acu-Link.com,2013-09-07 01:15:00,
2013-09-06 20:31:00,83.5,75.5,29.80,ENE,67,2.7,-999.0,77,-99.99,,,0.00,Acu-Link.com,2013-09-07 01:31:00,
2013-09-06 20:46:00,83.1,75.5,29.81,East,90,1.7,-999.0,78,-99.99,,,0.00,Acu-Link.com,2013-09-07 01:46:00,
2013-09-06 21:01:00,82.6,75.0,29.80,NE,45,1.7,-999.0,78,-99.99,,,0.00,Acu-Link.com,2013-09-07 02:01:00,
2013-09-06 21:16:00,82.6,75.0,29.79,East,90,1.7,-999.0,78,-99.99,,,0.00,Acu-Link.com,2013-09-07 02:16:00,
2013-09-06 21:31:00,82.6,75.4,29.79,SE,135,1.1,-999.0,79,-99.99,,,0.00,Acu-Link.com,2013-09-07 02:31:00,
2013-09-06 21:46:00,82.6,75.4,29.81,East,90,3.7,-999.0,79,-99.99,,,0.00,Acu-Link.com,2013-09-07 02:46:00,
2013-09-06 22:01:00,82.8,75.2,29.83,East,90,3.7,-999.0,78,-99.99,,,0.00,Acu-Link.com,2013-09-07 03:01:00,
2013-09-06 22:17:00,82.8,75.2,29.82,ENE,67,5.3,-999.0,78,-99.99,,,0.00,Acu-Link.com,2013-09-07 03:17:00,
2013-09-06 22:32:00,82.6,75.0,29.83,ESE,112,2.7,-999.0,78,-99.99,,,0.00,Acu-Link.com,2013-09-07 03:32:00,
2013-09-06 22:47:00,82.4,75.2,29.83,ESE,112,0.0,-999.0,79,-99.99,,,0.00,Acu-Link.com,2013-09-07 03:47:00,
2013-09-06 23:02:00,82.2,75.4,29.83,ESE,112,3.2,-999.0,80,-99.99,,,0.00,Acu-Link.com,2013-09-07 04:02:00,
2013-09-06 23:17:00,82.0,75.2,29.84,East,90,0.0,-999.0,80,-99.99,,,0.00,Acu-Link.com,2013-09-07 04:17:00,
2013-09-06 23:32:00,81.5,74.7,29.84,ESE,112,0.0,-999.0,80,-99.99,,,0.00,Acu-Link.com,2013-09-07 04:32:00,
2013-09-06 23:47:00,81.1,74.3,29.84,East,90,0.0,-999.0,80,-99.99,,,0.00,Acu-Link.com,2013-09-07 04:47:00,